Tracking 19288 objects as of 20-Nov-2018
HD Live streaming from Space Station
objects crossing your sky now

IRIDIUM 55

Track IRIDIUM 55 now!
10-day predictions
IRIDIUM 55 is classified as:


NORAD ID: 25272
Int'l Code: 1998-019A
Perigee: 768.5 km
Apogee: 772.0 km
Inclination: 86.4 °
Period: 100.1 minutes
Semi major axis: 7141 km
RCS: 4.111 m2 (large)
Launch date: March 30, 1998
Source: United States (US)
Launch site: AIR FORCE WESTERN TEST RANGE (AFWTR)
aabbcc
Your satellite tracking list
Your tracking list is empty




NASA's NSSDC Master Catalog

Two Line Element Set (TLE):
1 25272U 98019A   18323.84118261 +.00000150 +00000-0 +42674-4 0  9996
2 25272 086.4233 069.3911 0002463 101.2190 258.9285 14.38608221080680
Source of the keplerian elements: AFSPC